Time,TemperatureF,DewpointF,PressureIn,WindDirection,WindDirectionDegrees,WindSpeedMPH,WindSpeedGustMPH,Humidity,HourlyPrecipIn,Conditions,Clouds,dailyrainin,SoftwareType,DateUTC
2013-03-16 00:00:00,60.5,40.2,30.00,SSW,211,3.0,10.0,47,0.00,,,0.00,WeatherCatV1.11B39,2013-03-16 04:00:00,
2013-03-16 00:01:00,60.5,39.6,30.00,SW,234,7.0,7.0,46,0.00,,,0.00,WeatherCatV1.11B39,2013-03-16 04:01:00,
2013-03-16 00:06:00,60.4,40.1,30.00,WSW,242,8.0,10.0,47,0.00,,,0.00,WeatherCatV1.11B39,2013-03-16 04:06:00,
2013-03-16 00:11:00,60.3,40.0,30.00,SW,227,9.0,12.0,47,0.00,,,0.00,WeatherCatV1.11B39,2013-03-16 04:11:00,
2013-03-16 00:16:00,60.3,40.0,30.00,WSW,241,7.0,12.0,47,0.00,,,0.00,WeatherCatV1.11B39,2013-03-16 04:16:00,
2013-03-16 00:21:00,60.3,40.0,30.00,SW,221,5.0,8.0,47,0.00,,,0.00,WeatherCatV1.11B39,2013-03-16 04:21:00,
2013-03-16 00:26:00,60.3,40.0,30.00,SSW,198,6.0,9.0,47,0.00,,,0.00,WeatherCatV1.11B39,2013-03-16 04:26:00,
2013-03-16 00:31:00,60.2,39.9,30.00,SW,234,5.0,9.0,47,0.00,,,0.00,WeatherCatV1.11B39,2013-03-16 04:31:00,
2013-03-16 00:36:00,60.2,39.9,30.00,SW,224,12.0,12.0,47,0.00,,,0.00,WeatherCatV1.11B39,2013-03-16 04:36:00,
2013-03-16 00:41:00,60.1,39.8,30.00,SW,225,1.0,8.0,47,0.00,,,0.00,WeatherCatV1.11B39,2013-03-16 04:41:00,
2013-03-16 00:46:00,60.0,39.7,30.00,WSW,244,4.0,8.0,47,0.00,,,0.00,WeatherCatV1.11B39,2013-03-16 04:46:00,
2013-03-16 00:51:00,59.9,40.2,29.99,WSW,240,5.0,12.0,48,0.00,,,0.00,WeatherCatV1.11B39,2013-03-16 04:51:00,
2013-03-16 00:56:00,59.8,40.1,29.99,SW,222,4.0,11.0,48,0.00,,,0.00,WeatherCatV1.11B39,2013-03-16 04:56:00,
2013-03-16 01:01:00,59.7,40.0,29.99,SW,224,4.0,9.0,48,0.00,,,0.00,WeatherCatV1.11B39,2013-03-16 05:01:00,
2013-03-16 01:06:00,59.5,40.3,29.99,SW,224,5.0,9.0,49,0.00,,,0.00,WeatherCatV1.11B39,2013-03-16 05:06:00,
2013-03-16 01:11:00,59.4,40.2,29.99,West,273,1.0,8.0,49,0.00,,,0.00,WeatherCatV1.11B39,2013-03-16 05:11:00,
2013-03-16 01:16:00,59.2,40.0,29.99,SW,228,5.0,11.0,49,0.00,,,0.00,WeatherCatV1.11B39,2013-03-16 05:16:00,
2013-03-16 01:21:00,59.0,40.4,29.99,SW,224,8.0,9.0,50,0.00,,,0.00,WeatherCatV1.11B39,2013-03-16 05:21:00,
2013-03-16 01:26:00,59.0,40.4,29.98,SW,215,0.0,9.0,50,0.00,,,0.00,WeatherCatV1.11B39,2013-03-16 05:26:00,
2013-03-16 01:31:00,59.0,40.4,29.98,SW,222,4.0,8.0,50,0.00,,,0.00,WeatherCatV1.11B39,2013-03-16 05:31:00,
2013-03-16 01:37:00,59.0,40.4,29.98,SW,223,6.0,8.0,50,0.00,,,0.00,WeatherCatV1.11B39,2013-03-16 05:37:00,
2013-03-16 01:42:00,59.0,40.4,29.98,SW,215,2.0,12.0,50,0.00,,,0.00,WeatherCatV1.11B39,2013-03-16 05:42:00,
2013-03-16 01:47:00,59.0,40.4,29.98,SW,225,4.0,9.0,50,0.00,,,0.00,WeatherCatV1.11B39,2013-03-16 05:47:00,
2013-03-16 01:52:00,59.0,40.9,29.98,SSW,210,2.0,11.0,51,0.00,,,0.00,WeatherCatV1.11B39,2013-03-16 05:52:00,
2013-03-16 01:57:00,59.0,40.9,29.98,WSW,258,9.0,10.0,51,0.00,,,0.00,WeatherCatV1.11B39,2013-03-16 05:57:00,
2013-03-16 02:02:00,59.0,40.9,29.98,SW,225,2.0,12.0,51,0.00,,,0.00,WeatherCatV1.11B39,2013-03-16 06:02:00,
2013-03-16 02:07:00,59.0,40.9,29.98,SW,216,5.0,9.0,51,0.00,,,0.00,WeatherCatV1.11B39,2013-03-16 06:07:00,
2013-03-16 02:12:00,59.0,40.9,29.98,SSW,210,4.0,14.0,51,0.00,,,0.00,WeatherCatV1.11B39,2013-03-16 06:12:00,
2013-03-16 02:17:00,59.0,40.9,29.98,SSW,207,6.0,9.0,51,0.00,,,0.00,WeatherCatV1.11B39,2013-03-16 06:17:00,
2013-03-16 02:22:00,59.0,40.9,29.98,SSW,199,7.0,11.0,51,0.00,,,0.00,WeatherCatV1.11B39,2013-03-16 06:22:00,
2013-03-16 02:27:00,59.0,40.9,29.98,SW,226,5.0,7.0,51,0.00,,,0.00,WeatherCatV1.11B39,2013-03-16 06:27:00,
2013-03-16 02:32:00,58.7,41.1,29.98,SW,236,3.0,11.0,52,0.00,,,0.00,WeatherCatV1.11B39,2013-03-16 06:32:00,
2013-03-16 02:37:00,58.6,41.0,29.98,SW,221,4.0,11.0,52,0.00,,,0.00,WeatherCatV1.11B39,2013-03-16 06:37:00,
2013-03-16 02:42:00,58.4,41.3,29.98,SW,229,0.0,12.0,53,0.00,,,0.00,WeatherCatV1.11B39,2013-03-16 06:42:00,
2013-03-16 02:47:00,58.3,41.2,29.99,SSW,202,9.0,12.0,53,0.00,,,0.00,WeatherCatV1.11B39,2013-03-16 06:47:00,
2013-03-16 02:52:00,58.2,41.2,29.98,WSW,240,3.0,11.0,53,0.00,,,0.00,WeatherCatV1.11B39,2013-03-16 06:52:00,
2013-03-16 02:57:00,58.1,41.1,29.98,SW,218,7.0,7.0,53,0.00,,,0.00,WeatherCatV1.11B39,2013-03-16 06:57:00,
2013-03-16 03:02:00,57.9,41.4,29.99,WSW,245,2.0,6.0,54,0.00,,,0.00,WeatherCatV1.11B39,2013-03-16 07:02:00,
2013-03-16 03:07:00,57.8,41.3,29.99,SW,234,1.0,10.0,54,0.00,,,0.00,WeatherCatV1.11B39,2013-03-16 07:07:00,
2013-03-16 03:12:00,57.6,41.1,29.99,SW,221,3.0,8.0,54,0.00,,,0.00,WeatherCatV1.11B39,2013-03-16 07:12:00,
2013-03-16 03:17:00,57.4,41.4,29.99,SW,226,1.0,10.0,55,0.00,,,0.00,WeatherCatV1.11B39,2013-03-16 07:17:00,
2013-03-16 03:22:00,57.2,41.6,29.99,SW,232,0.0,3.0,56,0.00,,,0.00,WeatherCatV1.11B39,2013-03-16 07:22:00,
2013-03-16 03:27:00,57.0,41.5,29.99,SW,230,7.0,8.0,56,0.00,,,0.00,WeatherCatV1.11B39,2013-03-16 07:27:00,
2013-03-16 03:32:00,56.8,41.3,29.99,SW,229,3.0,6.0,56,0.00,,,0.00,WeatherCatV1.11B39,2013-03-16 07:32:00,
2013-03-16 03:37:00,56.7,41.6,29.98,SW,224,3.0,9.0,57,0.00,,,0.00,WeatherCatV1.11B39,2013-03-16 07:37:00,
2013-03-16 03:42:00,56.6,41.5,29.98,WSW,249,2.0,8.0,57,0.00,,,0.00,WeatherCatV1.11B39,2013-03-16 07:42:00,
2013-03-16 03:47:00,56.5,41.5,29.98,SW,227,3.0,6.0,57,0.00,,,0.00,WeatherCatV1.11B39,2013-03-16 07:47:00,
2013-03-16 03:52:00,56.5,41.9,29.98,SW,224,0.0,8.0,58,0.00,,,0.00,WeatherCatV1.11B39,2013-03-16 07:52:00,
2013-03-16 03:57:00,56.4,41.8,29.98,SW,217,3.0,8.0,58,0.00,,,0.00,WeatherCatV1.11B39,2013-03-16 07:57:00,
2013-03-16 04:02:00,56.3,41.7,29.98,SW,229,5.0,11.0,58,0.00,,,0.00,WeatherCatV1.11B39,2013-03-16 08:02:00,
2013-03-16 04:07:00,56.3,42.2,29.98,SW,234,7.0,12.0,59,0.00,,,0.00,WeatherCatV1.11B39,2013-03-16 08:07:00,
2013-03-16 04:12:00,56.3,42.2,29.98,SSW,213,2.0,7.0,59,0.00,,,0.00,WeatherCatV1.11B39,2013-03-16 08:12:00,
2013-03-16 04:17:00,56.3,42.2,29.98,SW,224,0.0,12.0,59,0.00,,,0.00,WeatherCatV1.11B39,2013-03-16 08:17:00,
2013-03-16 04:22:00,56.1,42.0,29.98,SW,215,0.0,1.0,59,0.00,,,0.00,WeatherCatV1.11B39,2013-03-16 08:22:00,
2013-03-16 04:27:00,56.0,41.9,29.98,SW,220,1.0,6.0,59,0.00,,,0.00,WeatherCatV1.11B39,2013-03-16 08:27:00,
2013-03-16 04:32:00,55.9,42.2,29.98,SW,236,3.0,6.0,60,0.00,,,0.00,WeatherCatV1.11B39,2013-03-16 08:32:00,
2013-03-16 04:37:00,55.8,42.1,29.98,WSW,253,8.0,8.0,60,0.00,,,0.00,WeatherCatV1.11B39,2013-03-16 08:37:00,
2013-03-16 04:42:00,55.8,42.1,29.98,SSW,211,2.0,9.0,60,0.00,,,0.00,WeatherCatV1.11B39,2013-03-16 08:42:00,
2013-03-16 04:47:00,55.7,42.0,29.98,SW,221,7.0,7.0,60,0.00,,,0.00,WeatherCatV1.11B39,2013-03-16 08:47:00,
2013-03-16 04:52:00,55.5,41.8,29.98,WSW,246,7.0,10.0,60,0.00,,,0.00,WeatherCatV1.11B39,2013-03-16 08:52:00,
2013-03-16 04:57:00,55.5,42.3,29.98,WSW,243,3.0,7.0,61,0.00,,,0.00,WeatherCatV1.11B39,2013-03-16 08:57:00,
2013-03-16 05:02:00,55.3,42.1,29.98,SW,220,2.0,16.0,61,0.00,,,0.00,WeatherCatV1.11B39,2013-03-16 09:02:00,
2013-03-16 05:07:00,55.3,42.1,29.98,SSE,158,2.0,8.0,61,0.00,,,0.00,WeatherCatV1.11B39,2013-03-16 09:07:00,
2013-03-16 05:12:00,55.3,42.1,29.98,WSW,242,2.0,8.0,61,0.00,,,0.00,WeatherCatV1.11B39,2013-03-16 09:12:00,
2013-03-16 05:18:00,55.3,42.1,29.98,WSW,248,6.0,15.0,61,0.00,,,0.00,WeatherCatV1.11B39,2013-03-16 09:18:00,
2013-03-16 05:23:00,55.3,42.1,29.98,SW,220,12.0,12.0,61,0.00,,,0.00,WeatherCatV1.11B39,2013-03-16 09:23:00,
2013-03-16 05:28:00,55.3,42.1,29.98,SW,232,3.0,8.0,61,0.00,,,0.00,WeatherCatV1.11B39,2013-03-16 09:28:00,
2013-03-16 05:33:00,55.3,42.1,29.99,WSW,246,4.0,8.0,61,0.00,,,0.00,WeatherCatV1.11B39,2013-03-16 09:33:00,
2013-03-16 05:38:00,55.2,42.0,29.99,SW,229,4.0,11.0,61,0.00,,,0.00,WeatherCatV1.11B39,2013-03-16 09:38:00,
2013-03-16 05:43:00,55.2,42.4,29.99,WSW,246,0.0,10.0,62,0.00,,,0.00,WeatherCatV1.11B39,2013-03-16 09:43:00,
2013-03-16 05:48:00,55.1,42.3,29.99,SSW,196,2.0,6.0,62,0.00,,,0.00,WeatherCatV1.11B39,2013-03-16 09:48:00,
2013-03-16 05:53:00,55.1,41.9,29.99,WSW,245,8.0,10.0,61,0.00,,,0.00,WeatherCatV1.11B39,2013-03-16 09:53:00,
2013-03-16 05:58:00,54.9,42.1,29.99,SW,232,6.0,10.0,62,0.00,,,0.00,WeatherCatV1.11B39,2013-03-16 09:58:00,
2013-03-16 06:03:00,54.7,41.9,29.99,SSW,206,3.0,8.0,62,0.00,,,0.00,WeatherCatV1.11B39,2013-03-16 10:03:00,
2013-03-16 06:08:00,54.5,42.2,29.99,SSW,194,6.0,7.0,63,0.00,,,0.00,WeatherCatV1.11B39,2013-03-16 10:08:00,
2013-03-16 06:13:00,54.4,42.1,29.99,WSW,256,0.0,10.0,63,0.00,,,0.00,WeatherCatV1.11B39,2013-03-16 10:13:00,
2013-03-16 06:18:00,54.2,41.9,29.99,WSW,244,7.0,8.0,63,0.00,,,0.00,WeatherCatV1.11B39,2013-03-16 10:18:00,
2013-03-16 06:23:00,54.1,42.2,29.99,SW,236,0.0,6.0,64,0.00,,,0.00,WeatherCatV1.11B39,2013-03-16 10:23:00,
2013-03-16 06:28:00,53.9,42.0,29.99,SSW,213,4.0,8.0,64,0.00,,,0.00,WeatherCatV1.11B39,2013-03-16 10:28:00,
2013-03-16 06:33:00,53.8,41.9,29.99,WSW,241,3.0,6.0,64,0.00,,,0.00,WeatherCatV1.11B39,2013-03-16 10:33:00,
2013-03-16 06:38:00,53.7,41.8,29.99,SSW,205,0.0,5.0,64,0.00,,,0.00,WeatherCatV1.11B39,2013-03-16 10:38:00,
2013-03-16 06:43:00,53.7,41.8,29.99,SW,227,3.0,5.0,64,0.00,,,0.00,WeatherCatV1.11B39,2013-03-16 10:43:00,
2013-03-16 06:48:00,53.6,42.1,29.99,SW,230,3.0,4.0,65,0.00,,,0.00,WeatherCatV1.11B39,2013-03-16 10:48:00,
2013-03-16 06:53:00,53.4,41.9,29.99,SW,220,4.0,5.0,65,0.00,,,0.00,WeatherCatV1.11B39,2013-03-16 10:53:00,
2013-03-16 06:58:00,53.2,41.7,30.00,SW,227,0.0,4.0,65,0.00,,,0.00,WeatherCatV1.11B39,2013-03-16 10:58:00,
2013-03-16 07:03:00,52.9,41.9,30.00,SW,217,3.0,6.0,66,0.00,,,0.00,WeatherCatV1.11B39,2013-03-16 11:03:00,
2013-03-16 07:08:00,52.6,42.0,30.00,SW,221,0.0,7.0,67,0.00,,,0.00,WeatherCatV1.11B39,2013-03-16 11:08:00,
2013-03-16 07:13:00,52.3,41.7,30.00,SW,228,1.0,6.0,67,0.00,,,0.00,WeatherCatV1.11B39,2013-03-16 11:13:00,
2013-03-16 07:18:00,52.2,41.6,30.00,WSW,238,0.0,5.0,67,0.00,,,0.00,WeatherCatV1.11B39,2013-03-16 11:18:00,
2013-03-16 07:23:00,52.0,41.8,30.00,WSW,251,0.0,5.0,68,0.00,,,0.00,WeatherCatV1.11B39,2013-03-16 11:23:00,
2013-03-16 07:28:00,51.8,41.6,30.00,WSW,249,3.0,4.0,68,0.00,,,0.00,WeatherCatV1.11B39,2013-03-16 11:28:00,
2013-03-16 07:33:00,51.6,41.4,30.00,SW,225,2.0,4.0,68,0.00,,,0.00,WeatherCatV1.11B39,2013-03-16 11:33:00,
2013-03-16 07:38:00,51.4,41.6,30.00,SSW,213,0.0,0.0,69,0.00,,,0.00,WeatherCatV1.11B39,2013-03-16 11:38:00,
2013-03-16 07:43:00,51.2,41.4,30.01,SW,222,1.0,3.0,69,0.00,,,0.00,WeatherCatV1.11B39,2013-03-16 11:43:00,
2013-03-16 07:48:00,50.9,41.5,30.01,SW,223,0.0,0.0,70,0.00,,,0.00,WeatherCatV1.11B39,2013-03-16 11:48:00,
2013-03-16 07:53:00,50.6,41.2,30.01,WSW,240,0.0,2.0,70,0.00,,,0.00,WeatherCatV1.11B39,2013-03-16 11:53:00,
2013-03-16 07:58:00,50.5,41.5,30.01,SW,228,0.0,0.0,71,0.00,,,0.00,WeatherCatV1.11B39,2013-03-16 11:58:00,
2013-03-16 08:03:00,50.4,41.4,30.01,SW,234,0.0,4.0,71,0.00,,,0.00,WeatherCatV1.11B39,2013-03-16 12:03:00,
2013-03-16 08:08:00,50.3,41.3,30.01,WSW,254,0.0,0.0,71,0.00,,,0.00,WeatherCatV1.11B39,2013-03-16 12:08:00,
2013-03-16 08:13:00,50.4,41.7,30.01,WSW,243,0.0,7.0,72,0.00,,,0.00,WeatherCatV1.11B39,2013-03-16 12:13:00,
2013-03-16 08:18:00,50.7,41.6,30.01,WSW,251,1.0,4.0,71,0.00,,,0.00,WeatherCatV1.11B39,2013-03-16 12:18:00,
2013-03-16 08:23:00,51.1,42.0,30.02,WSW,245,0.0,5.0,71,0.00,,,0.00,WeatherCatV1.11B39,2013-03-16 12:23:00,
2013-03-16 08:28:00,51.6,42.5,30.01,SW,227,0.0,2.0,71,0.00,,,0.00,WeatherCatV1.11B39,2013-03-16 12:28:00,
2013-03-16 08:33:00,52.3,42.4,30.01,SW,220,0.0,5.0,69,0.00,,,0.00,WeatherCatV1.11B39,2013-03-16 12:33:00,
2013-03-16 08:38:00,53.1,42.8,30.02,WNW,291,0.0,4.0,68,0.00,,,0.00,WeatherCatV1.11B39,2013-03-16 12:38:00,
2013-03-16 08:43:00,53.6,42.9,30.02,SW,214,0.0,2.0,67,0.00,,,0.00,WeatherCatV1.11B39,2013-03-16 12:43:00,
2013-03-16 08:48:00,54.0,42.5,30.02,West,259,4.0,9.0,65,0.00,,,0.00,WeatherCatV1.11B39,2013-03-16 12:48:00,
2013-03-16 08:53:00,54.3,42.4,30.02,WSW,257,1.0,8.0,64,0.00,,,0.00,WeatherCatV1.11B39,2013-03-16 12:53:00,
2013-03-16 08:58:00,54.7,42.8,30.02,WSW,254,5.0,9.0,64,0.00,,,0.00,WeatherCatV1.11B39,2013-03-16 12:58:00,
2013-03-16 09:03:00,55.2,42.8,30.02,West,273,5.0,8.0,63,0.00,,,0.00,WeatherCatV1.11B39,2013-03-16 13:03:00,
2013-03-16 09:08:00,55.8,43.0,30.02,West,265,5.0,10.0,62,0.00,,,0.00,WeatherCatV1.11B39,2013-03-16 13:08:00,
2013-03-16 09:13:00,56.3,43.4,30.02,SW,226,2.0,10.0,62,0.00,,,0.00,WeatherCatV1.11B39,2013-03-16 13:13:00,
2013-03-16 09:19:00,56.8,43.5,30.02,WSW,254,4.0,10.0,61,0.00,,,0.00,WeatherCatV1.11B39,2013-03-16 13:19:00,
2013-03-16 09:24:00,57.4,43.6,30.02,West,270,5.0,11.0,60,0.00,,,0.00,WeatherCatV1.11B39,2013-03-16 13:24:00,
2013-03-16 09:29:00,58.2,43.5,30.02,WSW,238,2.0,13.0,58,0.00,,,0.00,WeatherCatV1.11B39,2013-03-16 13:29:00,
2013-03-16 09:34:00,59.0,43.8,30.02,WSW,255,8.0,13.0,57,0.00,,,0.00,WeatherCatV1.11B39,2013-03-16 13:34:00,
2013-03-16 09:39:00,59.5,43.3,30.02,SW,231,4.0,9.0,55,0.00,,,0.00,WeatherCatV1.11B39,2013-03-16 13:39:00,
2013-03-16 09:44:00,60.0,43.3,30.01,West,277,5.0,12.0,54,0.00,,,0.00,WeatherCatV1.11B39,2013-03-16 13:44:00,
2013-03-16 09:49:00,60.3,43.1,30.01,West,259,13.0,16.0,53,0.00,,,0.00,WeatherCatV1.11B39,2013-03-16 13:49:00,
2013-03-16 09:54:00,60.6,43.4,30.01,WSW,258,8.0,12.0,53,0.00,,,0.00,WeatherCatV1.11B39,2013-03-16 13:54:00,
2013-03-16 09:59:00,61.1,43.8,30.01,West,275,3.0,15.0,53,0.00,,,0.00,WeatherCatV1.11B39,2013-03-16 13:59:00,
2013-03-16 10:04:00,61.6,43.8,30.01,SW,225,1.0,16.0,52,0.00,,,0.00,WeatherCatV1.11B39,2013-03-16 14:04:00,
2013-03-16 10:09:00,62.3,43.9,30.00,WSW,258,7.0,16.0,51,0.00,,,0.00,WeatherCatV1.11B39,2013-03-16 14:09:00,
2013-03-16 10:14:00,63.1,44.2,30.01,NW,310,5.0,11.0,50,0.00,,,0.00,WeatherCatV1.11B39,2013-03-16 14:14:00,
2013-03-16 10:19:00,63.7,43.6,30.00,West,267,14.0,14.0,48,0.00,,,0.00,WeatherCatV1.11B39,2013-03-16 14:19:00,
2013-03-16 10:24:00,64.2,44.1,30.00,WSW,246,3.0,7.0,48,0.00,,,0.00,WeatherCatV1.11B39,2013-03-16 14:24:00,
2013-03-16 10:29:00,64.5,43.8,30.00,West,279,9.0,12.0,47,0.00,,,0.00,WeatherCatV1.11B39,2013-03-16 14:29:00,
2013-03-16 10:34:00,64.9,44.2,30.00,NW,310,0.0,18.0,47,0.00,,,0.00,WeatherCatV1.11B39,2013-03-16 14:34:00,
2013-03-16 10:39:00,65.8,44.4,30.00,SW,219,11.0,14.0,46,0.00,,,0.00,WeatherCatV1.11B39,2013-03-16 14:39:00,
2013-03-16 10:44:00,66.3,44.3,30.00,WSW,251,4.0,15.0,45,0.00,,,0.00,WeatherCatV1.11B39,2013-03-16 14:44:00,
2013-03-16 10:49:00,66.7,44.7,30.00,West,271,7.0,12.0,45,0.00,,,0.00,WeatherCatV1.11B39,2013-03-16 14:49:00,
2013-03-16 10:54:00,67.1,44.5,30.00,West,277,3.0,13.0,44,0.00,,,0.00,WeatherCatV1.11B39,2013-03-16 14:54:00,
2013-03-16 10:59:00,67.7,45.0,29.99,SW,219,10.0,14.0,44,0.00,,,0.00,WeatherCatV1.11B39,2013-03-16 14:59:00,
2013-03-16 11:04:00,68.3,44.3,29.99,WSW,241,10.0,14.0,42,0.00,,,0.00,WeatherCatV1.11B39,2013-03-16 15:04:00,
2013-03-16 11:09:00,68.7,44.7,29.99,West,263,4.0,16.0,42,0.00,,,0.00,WeatherCatV1.11B39,2013-03-16 15:09:00,
2013-03-16 11:14:00,69.0,43.7,29.99,WSW,253,14.0,17.0,40,0.00,,,0.00,WeatherCatV1.11B39,2013-03-16 15:14:00,
2013-03-16 11:19:00,69.6,44.2,29.99,WNW,291,9.0,14.0,40,0.00,,,0.00,WeatherCatV1.11B39,2013-03-16 15:19:00,
2013-03-16 11:24:00,70.4,44.9,29.99,WSW,244,14.0,17.0,40,0.00,,,0.00,WeatherCatV1.11B39,2013-03-16 15:24:00,
2013-03-16 11:29:00,70.9,44.7,29.99,West,275,4.0,17.0,39,0.00,,,0.00,WeatherCatV1.11B39,2013-03-16 15:29:00,
2013-03-16 11:34:00,71.5,44.5,29.99,West,263,14.0,16.0,38,0.00,,,0.00,WeatherCatV1.11B39,2013-03-16 15:34:00,
2013-03-16 11:39:00,71.9,44.2,29.98,WSW,243,9.0,16.0,37,0.00,,,0.00,WeatherCatV1.11B39,2013-03-16 15:39:00,
2013-03-16 11:44:00,71.9,44.2,29.98,West,263,8.0,13.0,37,0.00,,,0.00,WeatherCatV1.11B39,2013-03-16 15:44:00,
2013-03-16 11:49:00,71.7,44.0,29.98,WNW,295,7.0,15.0,37,0.00,,,0.00,WeatherCatV1.11B39,2013-03-16 15:49:00,
2013-03-16 11:54:00,72.4,43.9,29.98,WSW,252,7.0,15.0,36,0.00,,,0.00,WeatherCatV1.11B39,2013-03-16 15:54:00,
2013-03-16 11:59:00,72.8,43.5,29.97,West,278,9.0,12.0,35,0.00,,,0.00,WeatherCatV1.11B39,2013-03-16 15:59:00,
2013-03-16 12:04:00,73.6,43.5,29.97,WSW,250,2.0,12.0,34,0.00,,,0.00,WeatherCatV1.11B39,2013-03-16 16:04:00,
2013-03-16 12:09:00,73.6,43.5,29.97,SW,232,12.0,18.0,34,0.00,,,0.00,WeatherCatV1.11B39,2013-03-16 16:09:00,
2013-03-16 12:14:00,74.0,43.8,29.96,WSW,241,6.0,13.0,34,0.00,,,0.00,WeatherCatV1.11B39,2013-03-16 16:14:00,
2013-03-16 12:19:00,74.6,42.8,29.96,WSW,238,12.0,14.0,32,0.00,,,0.00,WeatherCatV1.11B39,2013-03-16 16:19:00,
2013-03-16 12:24:00,74.7,42.9,29.96,West,272,14.0,14.0,32,0.00,,,0.00,WeatherCatV1.11B39,2013-03-16 16:24:00,
2013-03-16 12:29:00,74.8,41.3,29.95,WSW,256,8.0,14.0,30,0.00,,,0.00,WeatherCatV1.11B39,2013-03-16 16:29:00,
2013-03-16 12:34:00,75.0,41.4,29.95,West,278,7.0,9.0,30,0.00,,,0.00,WeatherCatV1.11B39,2013-03-16 16:34:00,
2013-03-16 12:39:00,75.7,41.2,29.95,WNW,288,3.0,26.0,29,0.00,,,0.00,WeatherCatV1.11B39,2013-03-16 16:39:00,
2013-03-16 12:44:00,75.4,41.8,29.95,West,266,12.0,13.0,30,0.00,,,0.00,WeatherCatV1.11B39,2013-03-16 16:44:00,
2013-03-16 12:49:00,76.2,41.6,29.95,WNW,286,2.0,8.0,29,0.00,,,0.00,WeatherCatV1.11B39,2013-03-16 16:49:00,
2013-03-16 12:54:00,76.0,41.4,29.95,NW,309,9.0,13.0,29,0.00,,,0.00,WeatherCatV1.11B39,2013-03-16 16:54:00,
2013-03-16 12:59:00,76.5,41.9,29.95,West,266,13.0,25.0,29,0.00,,,0.00,WeatherCatV1.11B39,2013-03-16 16:59:00,
2013-03-16 13:04:00,76.4,40.9,29.94,WSW,241,8.0,20.0,28,0.00,,,0.00,WeatherCatV1.11B39,2013-03-16 17:04:00,
2013-03-16 13:10:00,76.8,41.2,29.94,WSW,246,7.0,16.0,28,0.00,,,0.00,WeatherCatV1.11B39,2013-03-16 17:10:00,
2013-03-16 13:15:00,78.2,42.4,29.93,West,261,7.0,21.0,28,0.00,,,0.00,WeatherCatV1.11B39,2013-03-16 17:15:00,
2013-03-16 13:20:00,77.6,41.0,29.93,West,271,10.0,24.0,27,0.00,,,0.00,WeatherCatV1.11B39,2013-03-16 17:20:00,
2013-03-16 13:25:00,77.5,41.8,29.93,SW,227,13.0,22.0,28,0.00,,,0.00,WeatherCatV1.11B39,2013-03-16 17:25:00,
2013-03-16 13:30:00,78.0,43.1,29.93,WNW,303,2.0,15.0,29,0.00,,,0.00,WeatherCatV1.11B39,2013-03-16 17:30:00,
2013-03-16 13:35:00,77.9,42.1,29.92,SW,231,4.0,16.0,28,0.00,,,0.00,WeatherCatV1.11B39,2013-03-16 17:35:00,
2013-03-16 13:40:00,77.7,41.0,29.92,WSW,244,6.0,17.0,27,0.00,,,0.00,WeatherCatV1.11B39,2013-03-16 17:40:00,
2013-03-16 13:45:00,77.5,40.9,29.92,West,268,12.0,15.0,27,0.00,,,0.00,WeatherCatV1.11B39,2013-03-16 17:45:00,
2013-03-16 13:50:00,77.2,40.6,29.92,West,280,19.0,24.0,27,0.00,,,0.00,WeatherCatV1.11B39,2013-03-16 17:50:00,
2013-03-16 13:55:00,77.1,41.5,29.92,WSW,237,2.0,15.0,28,0.00,,,0.00,WeatherCatV1.11B39,2013-03-16 17:55:00,
2013-03-16 14:00:00,77.8,40.1,29.92,WSW,246,12.0,15.0,26,0.00,,,0.00,WeatherCatV1.11B39,2013-03-16 18:00:00,
2013-03-16 14:05:00,78.0,40.3,29.91,WNW,289,12.0,23.0,26,0.00,,,0.00,WeatherCatV1.11B39,2013-03-16 18:05:00,
2013-03-16 14:10:00,78.7,39.9,29.91,SW,226,3.0,18.0,25,0.00,,,0.00,WeatherCatV1.11B39,2013-03-16 18:10:00,
2013-03-16 14:15:00,78.7,40.9,29.90,SW,214,14.0,14.0,26,0.00,,,0.00,WeatherCatV1.11B39,2013-03-16 18:15:00,
2013-03-16 14:20:00,79.3,41.4,29.90,WSW,249,17.0,21.0,26,0.00,,,0.00,WeatherCatV1.11B39,2013-03-16 18:20:00,
2013-03-16 14:25:00,78.7,39.9,29.90,SW,228,2.0,10.0,25,0.00,,,0.00,WeatherCatV1.11B39,2013-03-16 18:25:00,
2013-03-16 14:30:00,79.0,41.2,29.90,WSW,248,13.0,13.0,26,0.00,,,0.00,WeatherCatV1.11B39,2013-03-16 18:30:00,
2013-03-16 14:35:00,79.6,41.7,29.90,West,268,15.0,17.0,26,0.00,,,0.00,WeatherCatV1.11B39,2013-03-16 18:35:00,
2013-03-16 14:40:00,79.5,41.6,29.89,SW,232,11.0,14.0,26,0.00,,,0.00,WeatherCatV1.11B39,2013-03-16 18:40:00,
2013-03-16 14:45:00,79.3,41.4,29.89,West,263,14.0,22.0,26,0.00,,,0.00,WeatherCatV1.11B39,2013-03-16 18:45:00,
2013-03-16 14:50:00,79.2,41.3,29.89,WSW,241,11.0,15.0,26,0.00,,,0.00,WeatherCatV1.11B39,2013-03-16 18:50:00,
2013-03-16 14:55:00,79.3,40.4,29.88,SW,222,0.0,14.0,25,0.00,,,0.00,WeatherCatV1.11B39,2013-03-16 18:55:00,
2013-03-16 15:00:00,80.3,42.3,29.88,West,263,13.0,18.0,26,0.00,,,0.00,WeatherCatV1.11B39,2013-03-16 19:00:00,
2013-03-16 15:05:00,80.2,42.2,29.88,SW,236,6.0,14.0,26,0.00,,,0.00,WeatherCatV1.11B39,2013-03-16 19:05:00,
2013-03-16 15:10:00,79.9,41.9,29.88,SSW,196,12.0,14.0,26,0.00,,,0.00,WeatherCatV1.11B39,2013-03-16 19:10:00,
2013-03-16 15:15:00,78.7,40.9,29.87,SSW,198,1.0,23.0,26,0.00,,,0.00,WeatherCatV1.11B39,2013-03-16 19:15:00,
2013-03-16 15:20:00,79.6,40.7,29.87,WSW,243,9.0,19.0,25,0.00,,,0.00,WeatherCatV1.11B39,2013-03-16 19:20:00,
2013-03-16 15:25:00,79.0,41.2,29.87,SSW,203,7.0,19.0,26,0.00,,,0.00,WeatherCatV1.11B39,2013-03-16 19:25:00,
2013-03-16 15:30:00,79.1,41.2,29.87,West,266,7.0,14.0,26,0.00,,,0.00,WeatherCatV1.11B39,2013-03-16 19:30:00,
2013-03-16 15:35:00,79.6,40.7,29.87,SW,221,17.0,22.0,25,0.00,,,0.00,WeatherCatV1.11B39,2013-03-16 19:35:00,
2013-03-16 15:40:00,79.0,41.2,29.87,South,173,14.0,19.0,26,0.00,,,0.00,WeatherCatV1.11B39,2013-03-16 19:40:00,
2013-03-16 15:45:00,79.3,40.4,29.87,South,185,18.0,20.0,25,0.00,,,0.00,WeatherCatV1.11B39,2013-03-16 19:45:00,
2013-03-16 15:50:00,79.1,40.2,29.87,WNW,298,11.0,15.0,25,0.00,,,0.00,WeatherCatV1.11B39,2013-03-16 19:50:00,
2013-03-16 15:55:00,79.0,40.2,29.86,WSW,257,1.0,14.0,25,0.00,,,0.00,WeatherCatV1.11B39,2013-03-16 19:55:00,
2013-03-16 16:00:00,78.9,40.1,29.87,SW,217,14.0,26.0,25,0.00,,,0.00,WeatherCatV1.11B39,2013-03-16 20:00:00,
2013-03-16 16:05:00,79.1,39.2,29.87,WSW,244,8.0,17.0,24,0.00,,,0.00,WeatherCatV1.11B39,2013-03-16 20:05:00,
2013-03-16 16:10:00,78.7,38.9,29.87,WSW,254,8.0,17.0,24,0.00,,,0.00,WeatherCatV1.11B39,2013-03-16 20:10:00,
2013-03-16 16:15:00,79.3,40.4,29.87,SW,227,5.0,15.0,25,0.00,,,0.00,WeatherCatV1.11B39,2013-03-16 20:15:00,
2013-03-16 16:20:00,79.2,39.3,29.87,SSW,213,9.0,18.0,24,0.00,,,0.00,WeatherCatV1.11B39,2013-03-16 20:20:00,
2013-03-16 16:25:00,79.1,39.2,29.86,WSW,251,11.0,14.0,24,0.00,,,0.00,WeatherCatV1.11B39,2013-03-16 20:25:00,
2013-03-16 16:30:00,79.4,38.4,29.86,SW,230,12.0,17.0,23,0.00,,,0.00,WeatherCatV1.11B39,2013-03-16 20:30:00,
2013-03-16 16:35:00,78.7,38.9,29.86,SW,221,6.0,20.0,24,0.00,,,0.00,WeatherCatV1.11B39,2013-03-16 20:35:00,
2013-03-16 16:40:00,78.9,39.0,29.86,WSW,258,5.0,18.0,24,0.00,,,0.00,WeatherCatV1.11B39,2013-03-16 20:40:00,
2013-03-16 16:46:00,79.0,39.1,29.86,WSW,256,3.0,21.0,24,0.00,,,0.00,WeatherCatV1.11B39,2013-03-16 20:46:00,
2013-03-16 16:51:00,80.1,41.1,29.86,SSW,199,7.0,16.0,25,0.00,,,0.00,WeatherCatV1.11B39,2013-03-16 20:51:00,
2013-03-16 16:56:00,80.6,40.4,29.86,SSW,192,11.0,11.0,24,0.00,,,0.00,WeatherCatV1.11B39,2013-03-16 20:56:00,
2013-03-16 17:01:00,79.8,39.8,29.86,SSW,204,7.0,20.0,24,0.00,,,0.00,WeatherCatV1.11B39,2013-03-16 21:01:00,
2013-03-16 17:06:00,78.9,39.0,29.86,WSW,242,9.0,20.0,24,0.00,,,0.00,WeatherCatV1.11B39,2013-03-16 21:06:00,
2013-03-16 17:11:00,79.3,39.4,29.85,WNW,288,6.0,11.0,24,0.00,,,0.00,WeatherCatV1.11B39,2013-03-16 21:11:00,
2013-03-16 17:16:00,79.2,39.3,29.85,WSW,246,2.0,11.0,24,0.00,,,0.00,WeatherCatV1.11B39,2013-03-16 21:16:00,
2013-03-16 17:21:00,79.3,39.4,29.86,WSW,252,6.0,16.0,24,0.00,,,0.00,WeatherCatV1.11B39,2013-03-16 21:21:00,
2013-03-16 17:26:00,79.2,40.3,29.86,WSW,255,0.0,17.0,25,0.00,,,0.00,WeatherCatV1.11B39,2013-03-16 21:26:00,
2013-03-16 17:31:00,78.9,39.0,29.86,WSW,238,3.0,15.0,24,0.00,,,0.00,WeatherCatV1.11B39,2013-03-16 21:31:00,
2013-03-16 17:36:00,78.6,38.8,29.86,SW,236,11.0,19.0,24,0.00,,,0.00,WeatherCatV1.11B39,2013-03-16 21:36:00,
2013-03-16 17:41:00,78.2,39.5,29.86,WSW,240,7.0,13.0,25,0.00,,,0.00,WeatherCatV1.11B39,2013-03-16 21:41:00,
2013-03-16 17:46:00,78.1,39.4,29.85,SW,223,8.0,14.0,25,0.00,,,0.00,WeatherCatV1.11B39,2013-03-16 21:46:00,
2013-03-16 17:51:00,77.9,39.2,29.85,SW,215,1.0,12.0,25,0.00,,,0.00,WeatherCatV1.11B39,2013-03-16 21:51:00,
2013-03-16 17:56:00,77.6,39.0,29.86,WSW,250,10.0,14.0,25,0.00,,,0.00,WeatherCatV1.11B39,2013-03-16 21:56:00,
2013-03-16 18:01:00,77.4,38.8,29.86,West,259,6.0,16.0,25,0.00,,,0.00,WeatherCatV1.11B39,2013-03-16 22:01:00,
2013-03-16 18:06:00,77.3,38.7,29.86,WNW,294,13.0,17.0,25,0.00,,,0.00,WeatherCatV1.11B39,2013-03-16 22:06:00,
2013-03-16 18:11:00,77.1,38.6,29.86,WSW,240,2.0,12.0,25,0.00,,,0.00,WeatherCatV1.11B39,2013-03-16 22:11:00,
2013-03-16 18:16:00,76.9,38.4,29.86,SW,222,3.0,18.0,25,0.00,,,0.00,WeatherCatV1.11B39,2013-03-16 22:16:00,
2013-03-16 18:21:00,76.8,38.3,29.86,SSW,213,2.0,14.0,25,0.00,,,0.00,WeatherCatV1.11B39,2013-03-16 22:21:00,
2013-03-16 18:26:00,76.7,39.2,29.86,SSW,211,4.0,15.0,26,0.00,,,0.00,WeatherCatV1.11B39,2013-03-16 22:26:00,
2013-03-16 18:31:00,76.6,38.1,29.86,WSW,243,7.0,10.0,25,0.00,,,0.00,WeatherCatV1.11B39,2013-03-16 22:31:00,
2013-03-16 18:36:00,76.5,39.0,29.86,WSW,250,9.0,14.0,26,0.00,,,0.00,WeatherCatV1.11B39,2013-03-16 22:36:00,
2013-03-16 18:41:00,76.3,38.9,29.86,West,259,16.0,16.0,26,0.00,,,0.00,WeatherCatV1.11B39,2013-03-16 22:41:00,
2013-03-16 18:46:00,76.0,38.6,29.86,WSW,237,4.0,12.0,26,0.00,,,0.00,WeatherCatV1.11B39,2013-03-16 22:46:00,
2013-03-16 18:51:00,75.8,40.4,29.86,WSW,254,2.0,13.0,28,0.00,,,0.00,WeatherCatV1.11B39,2013-03-16 22:51:00,
2013-03-16 18:56:00,75.5,40.1,29.86,West,262,8.0,12.0,28,0.00,,,0.00,WeatherCatV1.11B39,2013-03-16 22:56:00,
2013-03-16 19:01:00,75.3,40.8,29.87,SSW,207,7.0,7.0,29,0.00,,,0.00,WeatherCatV1.11B39,2013-03-16 23:01:00,
2013-03-16 19:06:00,75.0,40.6,29.87,West,261,8.0,17.0,29,0.00,,,0.00,WeatherCatV1.11B39,2013-03-16 23:06:00,
2013-03-16 19:11:00,74.7,40.3,29.87,SW,219,1.0,13.0,29,0.00,,,0.00,WeatherCatV1.11B39,2013-03-16 23:11:00,
2013-03-16 19:16:00,74.4,40.9,29.87,SW,236,3.0,10.0,30,0.00,,,0.00,WeatherCatV1.11B39,2013-03-16 23:16:00,
2013-03-16 19:21:00,74.1,40.7,29.87,WSW,243,7.0,10.0,30,0.00,,,0.00,WeatherCatV1.11B39,2013-03-16 23:21:00,
2013-03-16 19:26:00,73.8,40.4,29.88,SW,234,0.0,6.0,30,0.00,,,0.00,WeatherCatV1.11B39,2013-03-16 23:26:00,
2013-03-16 19:31:00,73.5,40.2,29.88,SW,225,8.0,9.0,30,0.00,,,0.00,WeatherCatV1.11B39,2013-03-16 23:31:00,
2013-03-16 19:36:00,73.3,40.0,29.88,SW,223,8.0,13.0,30,0.00,,,0.00,WeatherCatV1.11B39,2013-03-16 23:36:00,
2013-03-16 19:41:00,73.1,39.8,29.88,SW,226,4.0,13.0,30,0.00,,,0.00,WeatherCatV1.11B39,2013-03-16 23:41:00,
2013-03-16 19:46:00,72.9,40.5,29.88,SW,217,1.0,12.0,31,0.00,,,0.00,WeatherCatV1.11B39,2013-03-16 23:46:00,
2013-03-16 19:51:00,72.6,40.2,29.88,SSW,212,3.0,5.0,31,0.00,,,0.00,WeatherCatV1.11B39,2013-03-16 23:51:00,
2013-03-16 19:57:00,72.2,41.5,29.88,SW,216,0.0,4.0,33,0.00,,,0.00,WeatherCatV1.11B39,2013-03-16 23:57:00,
2013-03-16 20:02:00,71.6,41.7,29.88,WSW,240,5.0,6.0,34,0.00,,,0.00,WeatherCatV1.11B39,2013-03-17 00:02:00,
2013-03-16 20:07:00,71.0,41.2,29.88,SW,232,0.0,5.0,34,0.00,,,0.00,WeatherCatV1.11B39,2013-03-17 00:07:00,
2013-03-16 20:12:00,70.4,41.4,29.88,WSW,248,5.0,9.0,35,0.00,,,0.00,WeatherCatV1.11B39,2013-03-17 00:12:00,
2013-03-16 20:17:00,69.9,41.7,29.88,SW,229,0.0,10.0,36,0.00,,,0.00,WeatherCatV1.11B39,2013-03-17 00:17:00,
2013-03-16 20:22:00,69.6,42.2,29.89,SW,236,6.0,10.0,37,0.00,,,0.00,WeatherCatV1.11B39,2013-03-17 00:22:00,
2013-03-16 20:27:00,69.3,42.6,29.89,WSW,243,6.0,9.0,38,0.00,,,0.00,WeatherCatV1.11B39,2013-03-17 00:27:00,
2013-03-16 20:32:00,69.0,41.6,29.89,SW,227,2.0,6.0,37,0.00,,,0.00,WeatherCatV1.11B39,2013-03-17 00:32:00,
2013-03-16 20:37:00,68.7,42.1,29.89,SSW,213,0.0,5.0,38,0.00,,,0.00,WeatherCatV1.11B39,2013-03-17 00:37:00,
2013-03-16 20:42:00,68.4,41.8,29.89,SW,224,2.0,5.0,38,0.00,,,0.00,WeatherCatV1.11B39,2013-03-17 00:42:00,
2013-03-16 20:47:00,67.9,43.3,29.90,SSW,209,1.0,6.0,41,0.00,,,0.00,WeatherCatV1.11B39,2013-03-17 00:47:00,
2013-03-16 20:52:00,67.4,42.9,29.90,SW,225,0.0,4.0,41,0.00,,,0.00,WeatherCatV1.11B39,2013-03-17 00:52:00,
2013-03-16 20:57:00,66.8,43.0,29.90,SW,217,0.0,4.0,42,0.00,,,0.00,WeatherCatV1.11B39,2013-03-17 00:57:00,
2013-03-16 21:02:00,66.2,41.8,29.91,SW,216,0.0,3.0,41,0.00,,,0.00,WeatherCatV1.11B39,2013-03-17 01:02:00,
2013-03-16 21:07:00,65.7,42.6,29.91,SSW,211,0.0,3.0,43,0.00,,,0.00,WeatherCatV1.11B39,2013-03-17 01:07:00,
2013-03-16 21:12:00,65.1,42.6,29.91,SW,214,0.0,7.0,44,0.00,,,0.00,WeatherCatV1.11B39,2013-03-17 01:12:00,
2013-03-16 21:17:00,64.8,43.0,29.91,SW,234,0.0,11.0,45,0.00,,,0.00,WeatherCatV1.11B39,2013-03-17 01:17:00,
2013-03-16 21:22:00,64.8,43.0,29.91,SW,229,5.0,7.0,45,0.00,,,0.00,WeatherCatV1.11B39,2013-03-17 01:22:00,
2013-03-16 21:27:00,64.9,43.0,29.91,SSW,207,7.0,8.0,45,0.00,,,0.00,WeatherCatV1.11B39,2013-03-17 01:27:00,
2013-03-16 21:32:00,65.0,42.5,29.91,SSW,196,7.0,11.0,44,0.00,,,0.00,WeatherCatV1.11B39,2013-03-17 01:32:00,
2013-03-16 21:37:00,65.2,43.3,29.91,SSW,209,4.0,8.0,45,0.00,,,0.00,WeatherCatV1.11B39,2013-03-17 01:37:00,
2013-03-16 21:42:00,65.1,43.2,29.92,SW,223,0.0,10.0,45,0.00,,,0.00,WeatherCatV1.11B39,2013-03-17 01:42:00,
2013-03-16 21:47:00,65.0,43.1,29.92,South,182,1.0,9.0,45,0.00,,,0.00,WeatherCatV1.11B39,2013-03-17 01:47:00,
2013-03-16 21:52:00,64.9,43.0,29.92,SSW,213,6.0,8.0,45,0.00,,,0.00,WeatherCatV1.11B39,2013-03-17 01:52:00,
2013-03-16 21:57:00,64.8,43.5,29.92,SSW,213,4.0,7.0,46,0.00,,,0.00,WeatherCatV1.11B39,2013-03-17 01:57:00,
2013-03-16 22:02:00,64.8,43.5,29.92,SSW,212,7.0,9.0,46,0.00,,,0.00,WeatherCatV1.11B39,2013-03-17 02:02:00,
2013-03-16 22:07:00,64.8,43.5,29.92,WSW,238,4.0,8.0,46,0.00,,,0.00,WeatherCatV1.11B39,2013-03-17 02:07:00,
2013-03-16 22:12:00,64.8,43.5,29.92,SSW,213,6.0,7.0,46,0.00,,,0.00,WeatherCatV1.11B39,2013-03-17 02:12:00,
2013-03-16 22:17:00,64.8,43.5,29.92,SW,225,5.0,7.0,46,0.00,,,0.00,WeatherCatV1.11B39,2013-03-17 02:17:00,
2013-03-16 22:22:00,64.9,43.6,29.93,SW,215,10.0,10.0,46,0.00,,,0.00,WeatherCatV1.11B39,2013-03-17 02:22:00,
2013-03-16 22:27:00,65.0,43.7,29.93,SSW,205,4.0,10.0,46,0.00,,,0.00,WeatherCatV1.11B39,2013-03-17 02:27:00,
2013-03-16 22:32:00,64.9,43.6,29.93,SSW,193,0.0,5.0,46,0.00,,,0.00,WeatherCatV1.11B39,2013-03-17 02:32:00,
2013-03-16 22:37:00,64.7,44.0,29.93,WSW,242,1.0,8.0,47,0.00,,,0.00,WeatherCatV1.11B39,2013-03-17 02:37:00,
2013-03-16 22:42:00,64.4,43.7,29.93,SW,220,0.0,8.0,47,0.00,,,0.00,WeatherCatV1.11B39,2013-03-17 02:42:00,
2013-03-16 22:47:00,64.3,44.2,29.93,WSW,243,0.0,8.0,48,0.00,,,0.00,WeatherCatV1.11B39,2013-03-17 02:47:00,
2013-03-16 22:52:00,64.4,44.3,29.93,SW,225,1.0,10.0,48,0.00,,,0.00,WeatherCatV1.11B39,2013-03-17 02:52:00,
2013-03-16 22:57:00,64.5,44.4,29.93,WSW,240,6.0,10.0,48,0.00,,,0.00,WeatherCatV1.11B39,2013-03-17 02:57:00,
2013-03-16 23:02:00,64.5,44.4,29.93,WSW,246,1.0,7.0,48,0.00,,,0.00,WeatherCatV1.11B39,2013-03-17 03:02:00,
2013-03-16 23:07:00,64.5,44.4,29.93,WSW,246,2.0,5.0,48,0.00,,,0.00,WeatherCatV1.11B39,2013-03-17 03:07:00,
2013-03-16 23:12:00,64.4,44.3,29.93,SW,225,5.0,8.0,48,0.00,,,0.00,WeatherCatV1.11B39,2013-03-17 03:12:00,
2013-03-16 23:17:00,64.4,44.3,29.93,SW,223,5.0,7.0,48,0.00,,,0.00,WeatherCatV1.11B39,2013-03-17 03:17:00,
2013-03-16 23:22:00,64.3,44.2,29.93,WSW,246,4.0,10.0,48,0.00,,,0.00,WeatherCatV1.11B39,2013-03-17 03:22:00,
2013-03-16 23:27:00,64.2,44.6,29.93,West,261,0.0,8.0,49,0.00,,,0.00,WeatherCatV1.11B39,2013-03-17 03:27:00,
2013-03-16 23:32:00,64.1,44.5,29.93,SW,236,2.0,8.0,49,0.00,,,0.00,WeatherCatV1.11B39,2013-03-17 03:32:00,
2013-03-16 23:37:00,64.0,45.0,29.94,SW,229,7.0,8.0,50,0.00,,,0.00,WeatherCatV1.11B39,2013-03-17 03:37:00,
2013-03-16 23:42:00,63.8,44.8,29.93,SW,234,3.0,4.0,50,0.00,,,0.00,WeatherCatV1.11B39,2013-03-17 03:42:00,
2013-03-16 23:47:00,63.7,44.7,29.93,SW,235,2.0,10.0,50,0.00,,,0.00,WeatherCatV1.11B39,2013-03-17 03:47:00,
2013-03-16 23:52:00,63.6,44.6,29.93,SW,232,3.0,4.0,50,0.00,,,0.00,WeatherCatV1.11B39,2013-03-17 03:52:00,
2013-03-16 23:58:00,63.5,44.5,29.93,SSW,211,0.0,6.0,50,0.00,,,0.00,WeatherCatV1.11B39,2013-03-17 03:58:00,